TimeEDT,TemperatureF,Dew PointF,Humidity,Sea Level PressureIn,VisibilityMPH,Wind Direction,Wind SpeedMPH,Gust SpeedMPH,PrecipitationIn,Events,Conditions,WindDirDegrees,DateUTC
12:53 AM,30.2,23.0,75,30.20,10.0,NNE,5.8,-,N/A,,Overcast,20,2012-11-03 04:53:00
1:53 AM,30.0,24.1,79,30.26,10.0,NNE,3.5,-,N/A,,Overcast,30,2012-11-03 05:53:00
2:53 AM,30.0,24.1,79,30.26,10.0,North,4.6,-,N/A,,Overcast,360,2012-11-03 06:53:00
3:53 AM,30.0,23.0,75,30.27,10.0,ENE,4.6,-,N/A,,Overcast,60,2012-11-03 07:53:00
4:53 AM,30.9,24.1,76,30.27,10.0,NE,3.5,-,N/A,,Overcast,40,2012-11-03 08:53:00
5:53 AM,30.9,24.1,76,30.27,10.0,NE,3.5,-,N/A,,Overcast,50,2012-11-03 09:53:00
6:53 AM,30.9,24.1,76,30.27,10.0,Calm,Calm,-,N/A,,Overcast,0,2012-11-03 10:53:00
7:53 AM,30.9,24.1,76,30.27,10.0,Calm,Calm,-,N/A,,Overcast,0,2012-11-03 11:53:00
8:53 AM,30.0,24.1,79,30.28,10.0,NE,4.6,-,N/A,,Overcast,40,2012-11-03 12:53:00
9:53 AM,30.9,24.1,76,30.29,10.0,NE,6.9,-,N/A,,Overcast,50,2012-11-03 13:53:00
10:53 AM,30.9,24.1,76,30.29,10.0,ENE,6.9,-,N/A,,Overcast,60,2012-11-03 14:53:00
11:53 AM,32.0,24.1,73,30.29,10.0,ENE,3.5,-,N/A,,Overcast,70,2012-11-03 15:53:00
12:53 PM,32.0,24.1,73,30.30,10.0,Calm,Calm,-,N/A,,Overcast,0,2012-11-03 16:53:00
1:53 PM,33.1,24.1,70,30.29,10.0,North,4.6,-,N/A,,Overcast,350,2012-11-03 17:53:00
2:53 PM,33.1,24.1,70,30.29,10.0,NW,6.9,-,N/A,,Overcast,310,2012-11-03 18:53:00
3:53 PM,32.0,25.0,75,30.29,10.0,WNW,4.6,-,N/A,,Overcast,300,2012-11-03 19:53:00
4:53 PM,33.1,24.1,70,30.28,10.0,NNW,4.6,-,N/A,,Overcast,340,2012-11-03 20:53:00
5:37 PM,30.2,26.6,86,30.24,1.8,North,4.6,-,0.00,Snow,Light Snow,10,2012-11-03 21:37:00
5:44 PM,30.2,28.4,93,30.24,2.5,NNW,6.9,-,0.00,Snow,Light Snow,340,2012-11-03 21:44:00
5:53 PM,30.9,28.0,89,30.29,4.0,North,5.8,-,0.00,Snow,Light Snow,360,2012-11-03 21:53:00
6:53 PM,30.9,27.0,85,30.29,7.0,NNE,4.6,-,0.00,Snow,Light Snow,20,2012-11-03 22:53:00
7:53 PM,30.9,25.0,79,30.29,10.0,North,4.6,-,0.00,,Overcast,360,2012-11-03 23:53:00
8:53 PM,30.9,24.1,76,30.30,10.0,NE,4.6,-,N/A,,Overcast,40,2012-11-04 00:53:00
9:53 PM,30.9,25.0,79,30.29,10.0,Calm,Calm,-,N/A,,Overcast,0,2012-11-04 01:53:00
10:53 PM,30.9,24.1,76,30.30,10.0,North,4.6,-,N/A,,Overcast,360,2012-11-04 02:53:00
11:53 PM,30.9,24.1,76,30.29,10.0,Calm,Calm,-,N/A,,Overcast,0,2012-11-04 03:53:00